Regional Weather Roundup
Issued by NWS

Home | Current Version | Previous Version | Graphics & Text | Print | Product List | Glossary On
Versions: 1 2 3 4 5 6 7 8 9 10 11 12 13 14 15 16 17 18 19 20 21 22 23 24 25 26 27 28 29 30 31 32 33 34 35 36 37 38 39 40 41 42 43 44 45 46 47 48 49 50
000
ASUS43 KOAX 231402
RWRNE

WEATHER ROUNDUP FOR NEBRASKA
NATIONAL WEATHER SERVICE OMAHA NE
900 AM CDT TUE SEP 23 2014

NOTES: SATELLITE DATA IS BEING USED TO AUGMENT CLOUD COVER ABOVE
       12000 FEET.
       "FAIR" INDICATES FEW OR NO CLOUDS BELOW 12,000 FEET WITH NO
       SIGNIFICANT WEATHER AND/OR OBSTRUCTIONS TO VISIBILITY.

  * THESE STATIONS DO NOT REPORT WEATHER SUCH AS RAIN...SNOW OR FOG.

NEZ001>004-019>022-054>056-231500-
NEBRASKA PANHANDLE

CITY           SKY/WX    TMP DP  RH WIND       PRES   REMARKS
SCOTTSBLUFF    SUNNY     56  51  84 N5        30.03R
ALLIANCE       MOSUNNY   52  49  89 W12       30.00R
CHADRON        LGT RAIN  61  55  81 SW12      29.94S
KIMBALL        MOSUNNY   57  50  76 W8        30.07S
SIDNEY         SUNNY     62  51  67 W13       30.06R
$$

NEZ057>060-069>072-079>082-231500-
SOUTHWEST NEBRASKA

CITY           SKY/WX    TMP DP  RH WIND       PRES   REMARKS
NORTH PLATTE   MOSUNNY   58  56  93 SE8       30.02S
IMPERIAL       PTSUNNY   60  56  86 S9        30.03S
LEXINGTON      CLOUDY    58  56  94 S6        30.06R
MCCOOK         PTSUNNY   59  56  89 S9        30.04F
OGALLALA       SUNNY     59  57  95 SW3       30.02S
$$

NEZ005>010-023>029-035>040-094-231500-
NORTH CENTRAL NEBRASKA

CITY           SKY/WX    TMP DP  RH WIND       PRES   REMARKS
VALENTINE      CLOUDY    61  57  87 S14       29.95F
AINSWORTH      CLOUDY    58  55  90 S16       29.99S
BROKEN BOW     CLOUDY    58  55  90 S15       30.05R
O`NEILL        DRIZZLE   57  56  99 SE18      30.06S
ORD            CLOUDY    56  54  93 SE12      30.06S
THEDFORD       CLOUDY    60  57  91 S16       30.00R
$$

NEZ041-046>049-061>064-073>077-083>087-231500-
SOUTH CENTRAL NEBRASKA

CITY           SKY/WX    TMP DP  RH WIND       PRES   REMARKS
GRAND ISLAND   CLOUDY    57  55  93 SE9       30.10S
AURORA         CLOUDY    57  56  99 SE10      30.11S
HASTINGS       CLOUDY    57  53  86 SE14      30.09S
HEBRON         CLOUDY    58  55  89 SE7       30.13S
HOLDREGE       CLOUDY    56  55  94 S10       30.07R
KEARNEY *      CLOUDY    55  54  94 SE12      30.08S
YORK           CLOUDY    57  55  94 SE12      30.13S
$$

NEZ011>018-030>034-042>045-231500-
NORTHEAST NEBRASKA

CITY           SKY/WX    TMP DP  RH WIND       PRES   REMARKS
NORFOLK        RAIN      57  55  93 S17       30.12S FOG
ALBION         LGT RAIN  56  54  94 SE12      30.10S
BLAIR          CLOUDY    62  53  73 SE8       30.18R
COLUMBUS *     CLOUDY    55  54  94 S10       30.15F
FREMONT        CLOUDY    60  55  84 SE5       30.18R
TEKAMAH        LGT RAIN  60  55  83 SE9       30.17S
WAYNE          LGT RAIN  57  55  94 S8        30.15R
$$

NEZ050>053-065>068-078-088>093-231500-
SOUTHEAST NEBRASKA

CITY           SKY/WX    TMP DP  RH WIND       PRES   REMARKS
LINCOLN        RAIN      59  55  87 S3        30.18S FOG
OMAHA EPPLEY   CLOUDY    61  53  75 SE10      30.20R
BEATRICE       DRIZZLE   59  55  87 S5        30.17R
FALLS CITY     CLOUDY    60  52  74 S9        30.19F
NEBRASKA CITY    N/A     58  49  70 S9        30.19R
PLATTSMOUTH    LGT RAIN  59  52  79 SE8       30.20R
$$

NEZ044-045-051>053-067-231500-
OMAHA AREA

CITY           SKY/WX    TMP DP  RH WIND       PRES   REMARKS
OMAHA EPPLEY   CLOUDY    61  53  75 SE10      30.20R
BLAIR          CLOUDY    62  53  73 SE8       30.18R
FREMONT        CLOUDY    60  55  84 SE5       30.18R
MILLARD        CLOUDY    61  54  79 SE8       30.19R
OFFUTT AFB     CLOUDY    60  58  95 SE9       30.19R
PLATTSMOUTH    LGT RAIN  59  52  79 SE8       30.20R
WAHOO          PTSUNNY   58  54  85 SE5       30.17S
$$


USA.gov is the U.S. government's official web portal to all federal, state and local government web resources and services.